Location: Newark
(41.8083°N, 72.2500°W)
Time: 20:37:07
(UTC+00:00)

Courier 1B - Pass Details

Date: 09 December 2021
Orbit: 962 x 1209 km, 28.3° (Epoch: 19 January)

Event Time Altitude Azimuth Distance (km) Brightness Sun altitude
Rises 18:13:10 0° 217° (SW) 4,094 12.1 21.9°
Reaches altitude 10° 18:17:02 10° 200° (SSW) 3,137 12.4 21.6°
Maximum altitude 18:22:02 18° 160° (SSE) 2,549 10.6 21.3°
Drops below altitude 10° 18:27:00 10° 120° (ESE) 3,106 10.2 20.9°
Sets 18:30:47 0° 103° (ESE) 4,040 10.6 20.5°
